HTV-9 (KOUNOTORI 9) (45607 NORAD) Tracking and Keplerian Element Data

This shows tracking and keplerian element data for the satellite.

Feedback or suggestion? Click here.




ElementValue
Catalog45607
NameHTV-9 (KOUNOTORI 9)
Epoch Orbit38
Epoch Day144.16495565
Epoch Year2020
RAAN112.6442
Inclination51.6684
Eccentricity0.0014261
Argument of Perigee298.0174
Mean Anonmoly132.1669
Mean Motion15.93120093
Decay Rate-3.523E-05
L11 45607U 20030A 20144.16495565 -.00003523 11139-4 00000+0 0 9991
L22 45607 51.6684 112.6442 0014261 298.0174 132.1669 15.93120093 381

Live tracking and technical data element details for HTV-9 (KOUNOTORI 9) (NORAD 45607). HTV-9 (KOUNOTORI 9) can be tracked NOW for your location showing map with azimuth and elevation plus other details from your city location.

Track the satellite on the map from your city or location and see movement details for azimuth, elevation, latitude, longitude, range, height, and movement on the map or in text.







IsCatalogInMostPopularTable: catalog: 45607, numindb: -1

Insert: records affected: 1


GetName: 45607 HTV-9 (KOUNOTORI 9)

Hit Count: inserted at: Mon, 25 May 2020 07:44:45 GMT